This demonstration page uses our WeatherBlox Daily Observations layout. Learn more.

Left ArrowRight Arrow

38.80484, -77.04692

Hourly Observations for April 21, 2016

Temp ( °F °C ) Dew Point ( °F °C ) Humidity (%) Winds ( mph kmh ) Pressure ( in mb ) Visibility ( mi km ) Precip ( " mm )
12:52 am 00:52 Partly Cloudy 55 12.8 41 5 59 59 S 14 22 30.23 1024 10 16 0.00 0.00
1:52 am 01:52 Mostly Cloudy 53 11.7 40 4.4 61 61 SSW 15 24 30.22 1023 10 16 0.00 0.00
2:52 am 02:52 Mostly Cloudy 51 10.6 39 3.9 64 64 SSW 10 17 30.21 1023 10 16 0.00 0.00
3:52 am 03:52 Mostly Cloudy 50 10 35 1.7 57 57 SSW 9 15 30.21 1023 10 16 0.00 0.00
4:52 am 04:52 Partly Cloudy 49 9.4 35 1.7 59 59 SSW 8 13 30.21 1023 10 16 0.00 0.00
5:52 am 05:52 Mostly Cloudy 49 9.4 34 1.1 56 56 SW 8 13 30.21 1023 10 16 0.00 0.00
6:52 am 06:52 Mostly Cloudy 50 10 36 2.2 59 59 S 9 15 30.21 1023 10 16 0.00 0.00
7:52 am 07:52 Cloudy 52 11.1 36 2.2 55 55 S 7 11 30.21 1023 10 16 0.00 0.00
8:52 am 08:52 Cloudy 55 12.8 34 1.1 45 45 S 14 22 30.20 1023 10 16 0.00 0.00
9:24 am 09:24 Cloudy 57 14 34 1 41 41 SSW 15 24 30.21 1023 10 16 0.00 0.00
9:52 am 09:52 Cloudy 57 13.9 35 1.7 44 44 SSW 12 19 30.18 1022 10 16 0.00 0.00
10:17 am 10:17 Cloudy 58 14.4 35 1.7 42 42 S 12 19 30.18 1022 10 16 0.00 0.00
10:52 am 10:52 Cloudy 62 16.7 37 2.8 40 40 S 13 20 30.16 1021 10 16 0.00 0.00
11:19 am 11:19 Mostly Cloudy 62 16.7 39 3.9 43 43 S 14 22 30.15 1021 10 16 0.00 0.00
11:52 am 11:52 Mostly Cloudy 61 16.1 42 5.6 50 50 S 16 26 30.13 1020 10 16 0.00 0.00
12:52 pm 12:52 Mostly Cloudy 67 19.4 47 8.3 49 49 SSW 15 24 30.10 1019 10 16 0.00 0.00
1:52 pm 13:52 Mostly Cloudy 71 21.7 50 10 47 47 SSW 16 26 30.08 1019 10 16 0.00 0.00
2:52 pm 14:52 Cloudy 74 23.3 54 12.2 50 50 S 15 24 30.05 1018 10 16 0.00 0.00
3:52 pm 15:52 Cloudy 74 23.3 54 12.2 50 50 SSW 12 19 30.02 1017 10 16 0.00 0.00
4:52 pm 16:52 Cloudy 74 23.3 55 12.8 52 52 SSW 13 20 29.99 1016 10 16 0.00 0.00
5:52 pm 17:52 Cloudy 74 23.3 54 12.2 50 50 S 12 19 30.00 1016 10 16 0.00 0.00
6:18 pm 18:18 Cloudy 74 23.3 54 12.2 50 50 SSW 12 19 30.00 1016 10 16 0.00 0.00
6:52 pm 18:52 Cloudy 73 22.8 56 13.3 55 55 S 6 9 29.99 1016 10 16 0.00 0.00
7:52 pm 19:52 Cloudy 70 21.1 57 13.9 64 64 SE 5 7 29.98 1015 10 16 0.00 0.00
8:52 pm 20:52 Cloudy 69 20.6 58 14.4 68 68 SSW 5 7 29.99 1016 10 16 0.00 0.00
9:52 pm 21:52 Cloudy 67 19.4 59 15 76 76 S 6 9 30.00 1016 10 16 0.00 0.00
10:52 pm 22:52 Cloudy 67 19.4 58 14.4 73 73 S 7 11 29.98 1015 10 16 0.00 0.00
11:52 pm 23:52 Cloudy 67 19.4 58 14.4 73 73 S 9 15 29.98 1015 10 16 0.00 0.00

Powered by AerisWeather